Location: Chemnitz
(49.5500°N, 11.5830°E)
Time: 04:32:38
(UTC+01:00)

ISS - Pass Details

Date: 09 January 2018
Orbit: 401 x 406 km, 51.6° (Epoch: 17 January)

Event Time Altitude Azimuth Distance (km) Brightness Sun altitude
Exits shadow 07:22:57 - 283° (WNW) 1,538 -1.5 -7.2°
Reaches altitude 10° 07:23:08 10° 283° (WNW) 1,467 -1.6 -7.2°
Maximum altitude 07:26:18 46° 209° (SSW) 560 -3.1 -6.7°
Drops below altitude 10° 07:29:27 10° 135° (SE) 1,463 0.5 -6.2°
Sets 07:31:34 0° 129° (SE) 2,321 2.2 -5.9°
